星链-34610 (STARLINK-34610)

导读 | 豆包AI

STARLINK-34610是美国SpaceX公司于2025年7月30日发射的星链低轨通信卫星,属于全球规模最大的卫星互联网星座成员。卫星采用平板设计,重约227kg,搭载Ku/Ka波段通信载荷与氪工质霍尔推进器,具备自主避撞能力,将为全球偏远地区提供高速低延迟宽带互联网服务,退役后可主动离轨并在大气层焚毁。

Basic Information
目录编号:
65034
目录名称:
STARLINK-34610
国际标识:
2025-161V
轨道中心:
EARTH
卫星名称:
星链-34610
卫星全名:
星链-34610 (STARLINK-34610)
卫星状态:
在轨 (已飞行273 天)
发射日期:
2025-07-30 UTC
国别 :
美国 (US)
星等 :
--
Orbit Information
数据来源 国际轨道数据 AOE轨道数据
星历时间 2026-04-29T13:03:31+0800
8小时前
查看轨道信息
2026-04-29T17:00:00+0800
4小时前
查看轨道信息
半长轴 6853.362km 6853.352km
偏心率 0.000144 0.00018
轨道倾角 53.159° 53.162°
近地点辐角 77.493° 70.547°
升交点赤经 59.621° 58.858°
平近点角 282.623° 114.745°
近地点 474.238km 473.981km
远地点 476.212km 476.449km
周期 94.106分钟 94.105分钟
每日圈数 15.301967 15.302003
Detailed Information
固有亮度:
5
最大亮度:
2.5
卫星平台:
Starlink V1.0
覆盖范围:
全球
运营商:
太空探索技术公司
运营商所在国:
美国
制造商(研发单位):
太空探索技术公司
制造商所在国:
美国
使用方式:
暂无
Satellite Introduction
Starlink 计划是 SpaceX 推出的全球卫星互联网项目,通过发射低轨道卫星,为全球尤其是偏远地区提供高速、低延迟的互联网服务。自 2019 年起,Starlink 已部署数千颗卫星,旨在缩小全球数字鸿沟,推动互联网普及。该项目还为军事、航空等行业提供通信支持,带来广泛经济效益。
2D Orbit Map
3D Orbit Map
Orbit Altitude Analysis Chart
Orbit Inclination Analysis Chart
Orbit Comprehensive Analysis Chart
View Comprehensive Chart